TimeEST,TemperatureF,Dew PointF,Humidity,Sea Level PressureIn,VisibilityMPH,Wind Direction,Wind SpeedMPH,Gust SpeedMPH,PrecipitationIn,Events,Conditions,WindDirDegrees,DateUTC
12:53 AM,37.0,19.9,50,29.97,10.0,West,8.1,-,N/A,,Overcast,260,2012-11-26 05:53:00
1:53 AM,37.9,19.9,48,29.97,10.0,WSW,9.2,-,N/A,,Overcast,250,2012-11-26 06:53:00
2:53 AM,36.0,21.0,55,29.98,10.0,West,6.9,-,N/A,,Clear,260,2012-11-26 07:53:00
3:53 AM,34.0,21.9,61,29.99,10.0,WSW,8.1,-,N/A,,Mostly Cloudy,250,2012-11-26 08:53:00
4:53 AM,35.1,23.0,61,30.00,10.0,WSW,6.9,-,N/A,,Clear,250,2012-11-26 09:53:00
5:53 AM,35.1,23.0,61,30.02,10.0,West,5.8,-,N/A,,Clear,260,2012-11-26 10:53:00
6:53 AM,35.1,23.0,61,30.04,10.0,WSW,4.6,-,N/A,,Clear,240,2012-11-26 11:53:00
7:53 AM,37.0,24.1,59,30.07,10.0,WSW,6.9,-,N/A,,Clear,250,2012-11-26 12:53:00
8:53 AM,41.0,24.1,51,30.08,10.0,WSW,6.9,-,N/A,,Clear,250,2012-11-26 13:53:00
9:53 AM,44.1,23.0,43,30.11,10.0,WNW,12.7,23.0,N/A,,Clear,290,2012-11-26 14:53:00
10:53 AM,45.0,21.0,39,30.11,10.0,WNW,16.1,23.0,N/A,,Clear,300,2012-11-26 15:53:00
11:53 AM,46.0,19.9,35,30.11,10.0,NW,11.5,19.6,N/A,,Clear,310,2012-11-26 16:53:00
12:53 PM,48.0,19.0,32,30.11,10.0,NNW,10.4,-,N/A,,Clear,340,2012-11-26 17:53:00
1:53 PM,46.9,19.9,34,30.11,10.0,West,8.1,18.4,N/A,,Clear,280,2012-11-26 18:53:00
2:53 PM,48.0,18.0,30,30.12,10.0,NNW,9.2,-,N/A,,Clear,330,2012-11-26 19:53:00
3:53 PM,46.9,18.0,32,30.14,9.0,WNW,5.8,-,N/A,,Clear,300,2012-11-26 20:53:00
4:53 PM,45.0,18.0,34,30.16,10.0,Calm,Calm,-,N/A,,Clear,0,2012-11-26 21:53:00
5:53 PM,39.0,21.0,49,30.19,10.0,Calm,Calm,-,N/A,,Clear,0,2012-11-26 22:53:00
6:53 PM,37.0,21.0,52,30.20,10.0,Calm,Calm,-,N/A,,Clear,0,2012-11-26 23:53:00
7:53 PM,34.0,21.9,61,30.22,10.0,Calm,Calm,-,N/A,,Clear,0,2012-11-27 00:53:00
8:53 PM,35.1,23.0,61,30.24,10.0,Calm,Calm,-,N/A,,Clear,0,2012-11-27 01:53:00
9:53 PM,36.0,23.0,59,30.25,10.0,NNW,3.5,-,N/A,,Clear,330,2012-11-27 02:53:00
10:53 PM,34.0,23.0,64,30.26,10.0,North,3.5,-,N/A,,Clear,10,2012-11-27 03:53:00
11:53 PM,34.0,23.0,64,30.26,10.0,North,3.5,-,N/A,,Clear,10,2012-11-27 04:53:00